Location: Newark
(27.2452°N, 107.0032°W)
Time: 10:47:50
(UTC+00:00)

Hubble Space Telescope - Pass Details

Date: 24 December 2019
Orbit: 536 x 540 km, 28.5° (Epoch: 28 January)

Event Time Altitude Azimuth Distance (km) Brightness Sun altitude
Exits shadow 13:07:20 11° 261° (W) 1,725 2.8 -10.5°
Maximum altitude 13:10:43 28° 203° (SSW) 1,022 2.2 -9.8°
Drops below altitude 10° 13:14:16 10° 144° (SE) 1,781 4.4 -9.1°
Sets 13:16:45 0° 132° (SE) 2,670 5.9 -8.6°
